Вернуться в каталог

ARIANE 1 DEB

АктивенPO
NORAD 17429·DEBRIS·🇫🇷 France

Запущен Feb 22, 1986 с Guiana Space Centre

Loading…

Ближайшие Пролёты (ближайшие 24 часа)

TLE

СвежийSource: Space-Track

Эпоха: Sep 13, 2026, 18:17 UTC

1 17429U 86019FQ  26256.76219973  .00010523  00000-0  11717-2 0  9992
2 17429  99.0437 184.7104 0034517  11.2674 348.9303 14.86897257 85216

Отслеживайте ARIANE 1 DEB в реальном времени с AllMySat

Download on the App Store